This is the latest recevied weather packets stored in our database for station/object NK7E. If no packets are shown the sender has not sent any weather packets the latest 10 day(s).
| Time | Temp. | Humidity | Pressure | Rain* | Wind** | Luminosity | Snow |
|---|---|---|---|---|---|---|---|
| 1777948517 | 14.44° C | 71% | 1014.9 hPa | 1.78 mm | - | 0 W/m² | - |
| 1777947917 | 15° C | 71% | 1014.8 hPa | 1.78 mm | - | 0 W/m² | - |
| 1777947317 | 15° C | 69% | 1014.8 hPa | 1.78 mm | - | 0 W/m² | - |
| 1777946717 | 16.11° C | 65% | 1014.9 hPa | 1.27 mm | - | 0 W/m² | - |
| 1777946117 | 16.67° C | 58% | 1014.8 hPa | 0.76 mm | - | 0 W/m² | - |
| 1777945517 | 16.67° C | 57% | 1014.6 hPa | 0.76 mm | - | 0 W/m² | - |
| 1777944917 | 17.22° C | 57% | 1014.5 hPa | 0.51 mm | - | 0 W/m² | - |
| 1777944317 | 17.22° C | 58% | 1014.3 hPa | 0.51 mm | - | 5 W/m² | - |
| 1777943717 | 17.78° C | 63% | 1014 hPa | 0.25 mm | - | 8 W/m² | - |
| 1777943117 | 18.33° C | 61% | 1014 hPa | 0.25 mm | - | 11 W/m² | - |
| 1777942517 | 18.89° C | 55% | 1014 hPa | 0.25 mm | - | 9 W/m² | - |
| 1777941917 | 19.44° C | 50% | 1014 hPa | 0 mm | - | 14 W/m² | - |
| 1777941317 | 19.44° C | 48% | 1014 hPa | 0 mm | - | 22 W/m² | - |
| 1777940717 | 20° C | 47% | 1014 hPa | 0 mm | - | 31 W/m² | - |
| 1777940117 | 20° C | 46% | 1013.8 hPa | 0 mm | - | 29 W/m² | - |
| 1777939517 | 20.56° C | 44% | 1013.5 hPa | 0 mm | - | 30 W/m² | - |
| 1777938917 | 20.56° C | 42% | 1013 hPa | 0 mm | - | 34 W/m² | - |
| 1777938317 | 20.56° C | 43% | 1013.1 hPa | 0 mm | - | 33 W/m² | - |
| 1777937717 | 20.56° C | 42% | 1013.7 hPa | 0 mm | - | 60 W/m² | - |
| 1777937117 | 21.67° C | 41% | 1014.1 hPa | 0 mm | - | 45 W/m² | - |
| 1777936517 | 22.78° C | 34% | 1013.9 hPa | 0 mm | - | 53 W/m² | - |
| 1777935917 | 23.33° C | 28% | 1013.6 hPa | 0 mm | - | 50 W/m² | - |
| 1777935317 | 23.89° C | 26% | 1013.4 hPa | 0 mm | - | 62 W/m² | - |
| 1777934717 | 24.44° C | 26% | 1013.1 hPa | 0 mm | - | 64 W/m² | - |
| 1777934117 | 24.44° C | 23% | 1013.1 hPa | 0 mm | - | 88 W/m² | - |
* Rain latest hour (hover to see other rain measurements)
** Current wind speed in m/s (hover to see current wind gust speed)